STARLINK-1062 (44767 NORAD) Tracking and Keplerian Element Data

This shows tracking and keplerian element data for the satellite.

Feedback or suggestion? Click here.




ElementValue
Catalog44767
NameSTARLINK-1062
Epoch Orbit1035
Epoch Day17.91667824
Epoch Year2020
RAAN214.5277
Inclination53.0073
Eccentricity0.0001925
Argument of Perigee83.4109
Mean Anonmoly18.6137
Mean Motion15.05579038
Decay Rate0.00017928
L11 44767U 19074BG 20017.91667824 .00017928 00000-0 12465-2 0 9999
L22 44767 53.0073 214.5277 0001925 83.4109 18.6137 15.05579038 10356

Live tracking and technical data element details for STARLINK-1062 (NORAD 44767). STARLINK-1062 can be tracked NOW for your location showing map with azimuth and elevation plus other details from your city location.

Track the satellite on the map from your city or location and see movement details for azimuth, elevation, latitude, longitude, range, height, and movement on the map or in text.







IsCatalogInMostPopularTable: catalog: 44767, numindb: 23
Update: records affected: 1



GetName: 44767 STARLINK-1062

Hit Count: updated at: Mon, 20 Jan 2020 03:02:21 GMT